Calaveras, Mexico

2:03 AM MST on February 26, 2017 (GMT -0700)
Gen Rafael Buelna International

Weather History for MMMZ - October, 2011

Change the Weather History Date:

Monday, October 24, 2011

  Actual Average Record
Temperature  
Mean Temperature 79 °F -  
Max Temperature 89 °F 86 °F 91 °F (1997)
Min Temperature 69 °F 67 °F 55 °F (2007)
Cooling Degree Days 14    
Growing Degree Days 29 (Base 50)    
Moisture  
Dew Point 70 °F    
Average Humidity 74    
Maximum Humidity 89    
Minimum Humidity 52    
Precipitation  
Precipitation 0.00 in - - ()
Sea Level Pressure  
Sea Level Pressure 29.89 in    
Wind  
Wind Speed 6 mph ()    
Max Wind Speed 14 mph    
Max Gust Speed -    
Visibility 11.6 miles    
Events      
Averages and records for this station are not official NWS values.
T = Trace of Precipitation, MM = Missing Value Source: Averaged Metar Reports

Daily Weather History Graph

Daily Weather History Graph

Search for Another Location

Airport or City:

Trip Planner

Search our weather history database for the weather conditions in past years. The results will help you decide how hot, cold, wet, or windy it might be!

Date:

Astronomy

Oct. 24, 2011 Rise Set
Actual Time 7:05 AM MDT 6:32 PM MDT
Civil Twilight 6:43 AM MDT 6:55 PM MDT
Nautical Twilight 6:16 AM MDT 7:21 PM MDT
Astronomical Twilight 5:50 AM MDT 7:47 PM MDT
Moon 4:41 AM MDT (10/24) 4:49 PM MDT (10/24)
Length of Visible Light 12h 12m
Length of Day
11h 26m
Waning Crescent, 7% of the Moon is Illuminated
Oct 24
Waning Crescent
Oct 26
New
Nov 2
First Quarter
Nov 10
Full
Nov 18
Last Quarter

Hourly Weather History & Observations

Time (MDT) Temp. Heat Index Dew Point Humidity Pressure Visibility Wind Dir Wind Speed Gust Speed Precip Events Conditions
12:42 AM 73.4 °F - 68.0 °F 83% 29.89 in 10.0 mi North 3.5 mph - N/A   Clear
1:41 AM 73.4 °F - 66.2 °F 78% 29.88 in 10.0 mi North 6.9 mph - N/A   Clear
2:49 AM 71.6 °F - 66.2 °F 83% 29.88 in 10.0 mi NNE 5.8 mph - N/A   Clear
3:41 AM 71.6 °F - 66.2 °F 83% 29.88 in 10.0 mi NNE 5.8 mph - N/A   Clear
4:45 AM 69.8 °F - 66.2 °F 88% 29.88 in 10.0 mi North 5.8 mph - N/A   Clear
6:45 AM 69.8 °F - 66.2 °F 88% 29.92 in 10.0 mi NNE 5.8 mph - N/A   Clear
7:40 AM 69.8 °F - 66.2 °F 88% 29.93 in 12.0 mi NNE 5.8 mph - N/A   Clear
8:41 AM 73.4 °F - 69.8 °F 88% 29.95 in 12.0 mi NE 5.8 mph - N/A   Clear
9:45 AM 80.6 °F 84.6 °F 71.6 °F 74% 29.97 in 12.0 mi East 5.8 mph - N/A   Clear
10:42 AM 84.2 °F 89.6 °F 71.6 °F 66% 29.96 in 12.0 mi SE 4.6 mph - N/A   Partly Cloudy
11:42 AM 87.8 °F 93.8 °F 71.6 °F 58% 29.96 in 12.0 mi South 4.6 mph - N/A   Partly Cloudy
12:45 PM 87.8 °F 95.6 °F 73.4 °F 62% 29.92 in 12.0 mi SW 9.2 mph - N/A   Partly Cloudy
1:42 PM 89.6 °F 96.2 °F 71.6 °F 55% 29.88 in 12.0 mi SW 9.2 mph - N/A   Partly Cloudy
2:41 PM 89.6 °F 96.2 °F 71.6 °F 55% 29.85 in 15.0 mi WSW 13.8 mph - N/A   Partly Cloudy
3:40 PM 89.6 °F 94.7 °F 69.8 °F 52% 29.84 in 15.0 mi WSW 11.5 mph - N/A   Clear
4:41 PM 87.8 °F 92.6 °F 69.8 °F 55% 29.84 in 15.0 mi WSW 12.7 mph - N/A   Clear
5:50 PM 86.0 °F 90.4 °F 69.8 °F 58% 29.81 in 15.0 mi West 9.2 mph - N/A   Clear
6:40 PM 82.4 °F 87.2 °F 71.6 °F 70% 29.84 in 12.0 mi WNW 8.1 mph - N/A   Clear
7:42 PM 80.6 °F 84.6 °F 71.6 °F 74% 29.86 in 10.0 mi WNW 5.8 mph - N/A   Clear
8:45 PM 78.8 °F - 71.6 °F 78% 29.88 in 10.0 mi NW 5.8 mph - N/A   Clear
9:50 PM 77.0 °F - 71.6 °F 83% 29.90 in 10.0 mi NW 4.6 mph - N/A   Clear
10:47 PM 75.2 °F - 71.6 °F 89% 29.91 in 10.0 mi SSE 4.6 mph - N/A   Clear
11:45 PM 75.2 °F - 71.6 °F 89% 29.91 in 10.0 mi North 5.8 mph - N/A   Clear